Overview Statistics Trail Chart Weather Telemetry Raw packets
 

This is the latest recevied weather packets stored in our database for station/object KY0TEQ-13. If no packets are shown the sender has not sent any weather packets the latest 10 day(s).

<< 36 37 38 39 40 41 42 >>
Time Temp. Humidity Pressure Rain* Wind** Luminosity Snow
1788440949 10° C 77% 1309.3 hPa 0 mm - 18 W/m² -
1788440644 9.44° C 78% 1309.4 hPa 0 mm - 14 W/m² -
1788440343 9.44° C 79% 1309 hPa 0 mm - 11 W/m² -
1788440038 8.89° C 79% 1309.1 hPa 0 mm - 8 W/m² -
1788439737 10° C 79% 1309.1 hPa 0 mm - 6 W/m² -
1788439433 9.44° C 81% 1309.1 hPa 0 mm - 3 W/m² -
1788439132 8.89° C 81% 1309 hPa 0 mm - 2 W/m² -
1788438821 8.33° C 81% 1308.9 hPa 0 mm - 1 W/m² -
1788438519 7.78° C 80% 1308.8 hPa 0 mm - 0 W/m² -
1788438214 8.33° C 79% 1308.9 hPa 0 mm - 0 W/m² -
1788437913 8.89° C 79% 1308.8 hPa 0 mm - 0 W/m² -
1788437603 8.89° C 79% 1308.6 hPa 0 mm - 0 W/m² -
1788437298 9.44° C 78% 1308.8 hPa 0 mm - 0 W/m² -
1788436992 9.44° C 79% 1308.8 hPa 0 mm - 0 W/m² -
1788436386 9.44° C 77% 1308.6 hPa 0 mm - 0 W/m² -
1788436085 10° C 77% 1308.5 hPa 0 mm - 0 W/m² -
1788435781 9.44° C 77% 1308.6 hPa 0 mm - 0 W/m² -
1788435476 10° C 75% 1308.8 hPa 0 mm - 0 W/m² -
1788435172 10.56° C 75% 1308.4 hPa 0 mm - 0 W/m² -
1788434868 10.56° C 74% 1308.5 hPa 0 mm - 0 W/m² -
1788434564 10.56° C 74% 1308.3 hPa 0 mm - 0 W/m² -
1788434262 10.56° C 75% 1308.5 hPa 0 mm - 0 W/m² -
1788433957 10° C 76% 1308.4 hPa 0 mm - 0 W/m² -
1788433653 10° C 76% 1308.5 hPa 0 mm - 0 W/m² -
1788433349 10° C 76% 1308.5 hPa 0 mm - 0 W/m² -

* Rain latest hour (hover to see other rain measurements)
** Current wind speed in m/s (hover to see current wind gust speed)